TimeMDT,TemperatureF,Dew PointF,Humidity,Sea Level PressureIn,VisibilityMPH,Wind Direction,Wind SpeedMPH,Gust SpeedMPH,PrecipitationIn,Events,Conditions,WindDirDegrees,DateUTC
12:53 AM,69.1,60.1,73,30.09,10.0,South,16.1,-,N/A,,Clear,180,2013-07-18 06:53:00
1:53 AM,66.9,62.1,84,30.08,10.0,South,15.0,-,N/A,,Clear,180,2013-07-18 07:53:00
2:53 AM,66.0,62.1,87,30.07,10.0,South,13.8,-,N/A,,Clear,170,2013-07-18 08:53:00
3:53 AM,64.9,61.0,87,30.05,10.0,South,17.3,-,N/A,,Clear,180,2013-07-18 09:53:00
4:53 AM,64.0,61.0,90,30.04,10.0,South,18.4,26.5,N/A,,Clear,180,2013-07-18 10:53:00
5:53 AM,64.0,61.0,90,30.05,10.0,South,15.0,-,N/A,,Clear,180,2013-07-18 11:53:00
6:53 AM,66.0,61.0,84,30.03,10.0,South,16.1,-,N/A,,Clear,180,2013-07-18 12:53:00
7:53 AM,71.1,60.1,68,30.03,10.0,South,23.0,28.8,N/A,,Clear,180,2013-07-18 13:53:00
8:53 AM,73.9,61.0,64,30.04,10.0,South,21.9,28.8,N/A,,Clear,180,2013-07-18 14:53:00
9:53 AM,79.0,59.0,50,30.02,10.0,South,23.0,31.1,N/A,,Clear,190,2013-07-18 15:53:00
10:53 AM,82.9,59.0,44,30.00,10.0,South,26.5,36.8,N/A,,Clear,190,2013-07-18 16:53:00
11:53 AM,84.9,57.9,40,29.98,10.0,South,25.3,35.7,N/A,,Clear,190,2013-07-18 17:53:00
12:53 PM,88.0,57.0,35,29.95,10.0,South,23.0,38.0,N/A,,Clear,180,2013-07-18 18:53:00
1:53 PM,89.1,55.9,32,29.94,10.0,South,21.9,33.4,N/A,,Clear,180,2013-07-18 19:53:00
2:53 PM,90.0,55.9,31,29.92,10.0,South,24.2,29.9,N/A,,Clear,190,2013-07-18 20:53:00
3:53 PM,91.0,55.9,30,29.90,10.0,South,16.1,29.9,N/A,,Clear,190,2013-07-18 21:53:00
4:53 PM,90.0,54.0,29,29.88,10.0,South,20.7,34.5,N/A,,Clear,180,2013-07-18 22:53:00
5:53 PM,89.1,55.0,31,29.87,10.0,South,17.3,27.6,N/A,,Clear,190,2013-07-18 23:53:00
6:53 PM,87.1,55.9,35,29.86,10.0,South,13.8,24.2,N/A,,Clear,180,2013-07-19 00:53:00
7:53 PM,82.9,55.9,39,29.87,10.0,South,12.7,-,N/A,,Clear,170,2013-07-19 01:53:00
8:53 PM,79.0,55.9,45,29.88,10.0,South,10.4,-,N/A,,Clear,170,2013-07-19 02:53:00
9:53 PM,77.0,57.0,50,29.91,10.0,South,11.5,-,N/A,,Clear,170,2013-07-19 03:53:00
10:53 PM,73.9,57.0,55,29.91,10.0,SSE,11.5,-,N/A,,Clear,160,2013-07-19 04:53:00
11:53 PM,72.0,57.9,61,29.91,10.0,South,11.5,-,N/A,,Clear,170,2013-07-19 05:53:00